Location: Berville
(49.1893°N, 2.0748°E)
Time: 16:47:39
(UTC+00:00)

Cosmos 2278 Rocket - Pass Details

Date: 08 February 2023
Orbit: 841 x 845 km, 71.0° (Epoch: 29 March)

Event Time Altitude Azimuth Distance (km) Brightness Sun altitude
Rises 18:41:31 0° 332° (NNW) 3,416 5.7 -17.0°
Reaches altitude 10° 18:44:00 10° 336° (NNW) 2,477 4.9 -17.4°
Maximum altitude 18:49:39 62° 58° (ENE) 946 2.2 -18.3°
Enters shadow 18:53:17 22° 133° (SE) 1,753 3.4 -18.9°
